Overview Statistics Trail Chart Weather Telemetry Raw packets
 

This is the latest recevied weather packets stored in our database for station/object IZ2PAG-10. If no packets are shown the sender has not sent any weather packets the latest 10 day(s).

<< 1 2 3 4 5 >>
Time Temp. Humidity Pressure Rain* Wind** Luminosity Snow
1788529476 27.78° C 48% 1020.2 hPa - - - -
1788529208 27.78° C 48% 1020.2 hPa - - - -
1788527407 27.78° C 48% 1020.4 hPa - - - -
1788525762 27.78° C 50% 1020.7 hPa - - - -
1788525704 27.78° C 50% 1020.7 hPa - - - -
1788525607 27.78° C 50% 1020.7 hPa - - - -
1788523892 27.78° C 49% 1020.9 hPa - - - -
1788523806 27.78° C 49% 1020.9 hPa - - - -
1788522006 27.22° C 52% 1021 hPa - - - -
1788520238 27.78° C 52% 1021.2 hPa - - - -
1788520206 27.78° C 52% 1021.2 hPa - - - -
1788518405 27.78° C 52% 1021.3 hPa - - - -
1788516604 27.78° C 52% 1021.5 hPa - - - -
1788514804 27.78° C 52% 1021.8 hPa - - - -
1788513084 27.78° C 49% 1021.8 hPa - - - -
1788513004 27.78° C 49% 1021.8 hPa - - - -
1788511204 27.22° C 51% 1021.8 hPa - - - -
1788509403 27.78° C 50% 1021.7 hPa - - - -
1788507603 27.22° C 50% 1021.7 hPa - - - -
1788505803 27.22° C 50% 1021.6 hPa - - - -
1788504003 27.22° C 50% 1021.6 hPa - - - -
1788502284 26.67° C 51% 1021.6 hPa - - - -
1788502203 26.67° C 51% 1021.6 hPa - - - -
1788500402 26.67° C 50% 1021.6 hPa - - - -
1788498602 26.11° C 53% 1021.5 hPa - - - -

* Rain since midnight (hover to see other rain measurements)
** Current wind speed in m/s (hover to see current wind gust speed)